Location: Bittelbronn
(48.4454°N, 8.5870°E)
Time: 13:25:23
(UTC+00:00)

ISS - Visible Passes

Search period start: 20 July 2024 00:00
Search period end: 30 July 2024 00:00
Orbit: 409 x 423 km, 51.6° (Epoch: 20 July)

Date Brightness Start Highest point End Pass type
(mag) Time Alt. Az. Time Alt. Az. Time Alt. Az.
20 Jul -3.8 21:02:49 10° WNW 21:06:08 84° NNE 21:08:05 23° ESE visible
20 Jul -1.5 22:39:57 10° W 22:40:57 16° WSW 22:40:57 16° WSW visible
21 Jul -3.5 20:14:20 10° WNW 20:17:38 65° NNE 20:20:56 10° E visible
21 Jul -2.8 21:51:13 10° W 21:54:01 33° SW 21:54:01 33° SW visible
22 Jul -3.5 21:02:36 10° WNW 21:05:49 50° SSW 21:07:05 30° SSE visible
23 Jul -3.8 20:14:00 10° WNW 20:17:19 74° SSW 20:20:10 13° ESE visible
23 Jul -1.5 21:51:34 10° W 21:53:02 15° SW 21:53:02 15° SW visible
24 Jul -2.2 21:02:29 10° W 21:05:11 23° SW 21:06:07 21° SSW visible
25 Jul -2.8 20:13:38 10° WNW 20:16:43 35° SW 20:19:13 14° SSE visible
26 Jul -1.2 21:03:38 10° WSW 21:04:14 10° SW 21:04:51 10° SW visible
27 Jul -1.6 20:13:35 10° W 20:15:46 17° SW 20:17:57 10° S visible
